{"data":{"norad_id":38098,"epoch":"2026-05-25T02:22:30.685728Z","epoch_age_seconds":70070,"freshness":"FRESH","line1":"1 38098U 12011A   26145.09896627 -.00000061  00000+0  00000+0 0  9994","line2":"2 38098   0.0206  69.4122 0001724 352.9080 288.1162  1.00272508  6956","mean_motion":1.00272508,"eccentricity":0.0001724,"inclination_deg":0.0206,"raan_deg":69.4122,"arg_perigee_deg":352.908,"mean_anomaly_deg":288.1162,"bstar":0,"rev_number":695,"period_min":1436.0865492663,"perigee_km":35779.123114415,"apogee_km":35793.661444111,"semimajor_km":42164.529279263,"source":"CELESTRAK","updated_at":"2026-05-25T13:38:14.331192Z"}}